Portada
METAR-TAF:

METAR-TAF

Aeroports :

Boone Municipal Airport

Boone, Iowa, Estats Units d'Amèrica

latitud: 42-03N, longitud: 093-51W, altitud: 354 m

Observació

L'informe es va fer fa 18 minuts, a les 18:15 UTC
Vent 13 kt del Oest/Sud-Oest
Temperatura -4°C
Humitat 100%
Pressió 1023 hPa
Visibilitat: 12.9 km
Escasses núvols a una alçada de 1400 ft

METAR: KBNW 101815Z AUTO 25013KT 8SM FEW014 M04/M04 A3021 RMK AO2

Hora: 12:33 (18:33 UTC)


TAF: manca

Observacions i pronòstics meteorològics de més de 4000 aeroports (METAR i TAF).

Les estacions disponibles són els punts grocs i vermells al mapa.

Posi el ratolí al punt desitjat per veure el nom de l'estació.

Feu clic per veure les observacions i els pronòstics meteorològics.

Per canviar el mapa: feu clic els botons verds amb una creu de color negre per apropar; al botó verd amb un guió per allunyar la imatge; o en les fletxes verdes per a mapes adjacents.


METAR-TAF: